Simultaneous Nadir Overpasses (SNOs) Predictions

Prediction of SNOs between METOP-B and NOAA-19 Satellite Orbit:

Table of predicted SNOs for the next 14.0 days since TLE Epoch: 1/13/2024
Index Date (METOP-B) Time (METOP-B) Lat,Lon (METOP-B) SZA (METOP-B ) Date (NOAA-19) Time (NOAA-19) Lat,Lon (NOAA-19) SZA (NOAA-19 ) Distance(km) Time Diff (sec)
1 01/18/2024 16:00:17 -80.32, 144.07 78.54 01/18/2024 15:59:11 -80.33, 144.20 78.54 2.53 66
2 01/18/2024 16:50:57 80.34, -48.43 101.48 01/18/2024 16:50:04 80.35, -48.34 101.48 1.83 53
3 01/18/2024 17:41:37 -80.37, 119.29 78.47 01/18/2024 17:41:08 -80.36, 119.19 78.49 1.96 29
4 01/18/2024 18:32:17 80.38, -73.22 101.55 01/18/2024 18:32:01 80.38, -73.35 101.53 2.65 16
5 01/18/2024 19:22:58 -80.39, 94.18 78.46 01/18/2024 19:23:05 -80.39, 94.18 78.45 0.33 7
6 01/18/2024 20:13:38 80.40, -98.32 101.56 01/18/2024 20:13:58 80.40, -98.35 101.57 0.59 20
7 01/18/2024 21:04:18 -80.44, 69.40 78.39 01/18/2024 21:05:01 -80.44, 69.52 78.37 2.22 43



Historial Predications of SNOs between METOP-B and NOAA-19
